Regional Weather Roundup
Issued by NWS Wakefield, VA

Home | Current Version | Previous Version | Graphics & Text | Print | Product List | Glossary On
Versions: 1 2 3 4 5 6 7 8 9 10 11 12 13 14 15 16 17 18 19 20 21 22 23 24 25 26 27 28 29 30 31 32 33 34 35 36 37 38 39 40 41 42 43 44 45 46 47 48 49
000
ASUS41 KAKQ 051214
RWRAKQ

REGIONAL WEATHER ROUNDUP
NATIONAL WEATHER SERVICE WAKEFIELD VA
800 AM EDT SAT SEP 05 2015

Note: "fair" indicates few or no clouds below 12,000 feet with no
significant weather and/or obstructions to visibility. * = Denotes
station may not report precipitation (e.g., rain,snow,etc.),
thunder or fog.

VAZ042-051-052>054-056-051300-
NORTHERN VIRGINIA

CITY           SKY/WX    TMP DP  RH WIND       PRES   REMARKS
WASH NATIONAL  CLOUDY    74  68  81 NE10      30.22R
DULLES         CLOUDY    72  68  87 NE3       30.23R
FORT BELVOIR   CLOUDY    73  68  84 VRB1      30.21R
QUANTICO       CLOUDY    72  68  87 NE13      30.22R
FREDERICKSBRG* MOSUNNY   72  72 100 N6        30.20R
STAFFORD*      CLOUDY    72  69  89 NE5       30.25R FOG
WARRENTON      CLOUDY    71  71  99 CALM      30.23R FOG
CULPEPER*      CLOUDY    70  69  98 CALM      30.24R FOG
MANASSAS*      PTSUNNY   72  72 100 N3        30.22R
LEESBURG*      CLOUDY    73  70  88 NE5       30.25R
WINCHESTER     CLOUDY    72  68  88 NE3       30.25R FOG
FRONT ROYAL*   CLOUDY    70  68  94 E3        30.23R
LURAY*         CLOUDY    70  70 100 N6        30.24R FOG
$$

VAZ048-049-060>072-079>083-051300-
CENTRAL AND SOUTH CENTRAL VIRGINIA

CITY           SKY/WX    TMP DP  RH WIND       PRES   REMARKS
RICHMOND       PTSUNNY   73  70  90 NE10      30.17R FOG
CHESTERFIELD*  CLOUDY    73  61  64 N7        30.18R
PETERSBURG*    CLOUDY    74  74 100 N9        30.16S FOG
HANOVER        SUNNY     72  70  93 CALM      30.20R FOG
TAPPAHANNOCK*  MOSUNNY   74  69  83 N6        30.18S
QUINTON*       CLOUDY    71  71  98 N5        30.16S FOG
CHARLOTTSVILLE CLOUDY    72  69  90 NE7       30.22R FOG
GORDONSVILLE*  CLOUDY    71  70  97 MISG      30.22R FOG
ORANGE*        CLOUDY    72  70  94 N5        30.24R FOG
LOUISA*        CLOUDY    72  70  94 NE8       30.21R FOG
BUMPASS*       CLOUDY    70  70  99 CALM      30.20R
FARMVILLE*     FOG       71  71 100 N5        30.19R VSB 1/2
CREWE*         CLOUDY   N/A N/A N/A N5        30.17R
FORT PICKETT*  CLOUDY    71  70  98 NE7G16    30.17R
CHASE CITY*    CLOUDY    72  72 100 CALM      30.18R
CLARKSVILLE*   CLOUDY    70  70 100 N5        30.17R
SOUTH HILL*    CLOUDY    70  70 100 N6        30.22R
LAWRENCEVILLE* CLOUDY    72  72 100 NE5       30.15R
EMPORIA*       CLOUDY    72  70  94 N6        30.15S FOG
$$

VAZ088>098-051300-
SOUTHEAST VIRGINIA

CITY           SKY/WX    TMP DP  RH WIND       PRES   REMARKS
NORFOLK        CLOUDY    79  71  76 NE16G28   30.11R
VIRGINIA BEACH PTSUNNY   83  71  67 NE17G26   30.09R
NORFOLK NAVAL  PTSUNNY   79  72  79 NE16G22   30.13R
WEST POINT*    MOSUNNY   77  72  86 N5        30.16S
SALUDA*        CLOUDY    76  72  86 NE10G16   30.15S
NEWPORT NEWS   CLOUDY    77  72  84 NE14      30.13R
LANGLEY AFB    LGT RAIN  77  73  88 NE20G29   30.11R FOG
FORT EUSTIS    PTSUNNY   76  76 100 NE5       30.11S
WILLIAMSBURG*  MOSUNNY   77  75  94 NE3       30.15R
HR EXEC AP*      N/A     75  72  88 NE6       30.13R
FRANKLIN*      RAIN      72  72  98 N6        30.13R
WAKEFIELD      PTSUNNY   73  70  90 VRB3      30.14R FOG
$$

VAZ020-022-025-037-045-051300-
WEST CENTRAL AND SOUTHWEST VIRGINIA

CITY           SKY/WX    TMP DP  RH WIND       PRES   REMARKS
STAUNTON*      CLOUDY    70  67  93 N3        30.26R FOG
WAYNESBORO*    CLOUDY    69  68  95 CALM      30.25R
HOT SPRINGS VA LGT RAIN  64  64 100 E7        30.32R VSB<1/4
LYNCHBURG      CLOUDY    69  68  96 NE8       30.23R FOG
DANVILLE       CLOUDY    71  68  90 NE7       30.18R FOG
SOUTH BOSTON*  CLOUDY    68  67  96 CALM      30.18R
MARTINSVILLE   CLOUDY    70  70 100 N3        30.23R
ROANOKE        CLOUDY    68  67  96 CALM      30.24R
BLACKSBURG     PTSUNNY   65  65 100 CALM      30.29R FOG
DUBLIN*        CLOUDY    64  64 100 CALM      30.27R FOG
MARION*        CLOUDY    65  63  91 CALM      30.29R FOG
HILLSVILLE*    FOG       62  62 100 CALM      30.26R VSB<1/4
RICHLANDS*     FAIR      67  32  27 SE5       30.24S
WISE*          SUNNY     64  57  77 CALM      30.24R
ABINGDON*      SUNNY     68  63  82 E7        30.22R
$$

MDZ021>025-VAZ099-100-051300-
SOUTHERN MARYLAND AND THE DELMARVA PENINSULA

CITY           SKY/WX    TMP DP  RH WIND       PRES   REMARKS
PATUXENT RIVER CLOUDY    74  68  81 NE13      30.19R
BAY BRIDGE APT   N/A     72  66  83 NE6       30.21F
LEONARDTOWN    NOT AVBL
DOVER          PTSUNNY   73  67  82 NE13      30.20R
GEORGETOWN     SUNNY     74  67  78 NE10      30.19S
EASTON         MOSUNNY   72  72 100 NE6       30.24R
CAMBRIDGE      SUNNY     72  66  83 N5        30.19S
SALISBURY      MOSUNNY   74  69  85 NE9       30.18R
OCEAN CITY     SUNNY     77  68  73 NE13      30.17R
WALLOPS ISLAND MOSUNNY   78  69  73 NE20      30.16R
ACCOMACK*      CLOUDY    73  50  43 NE13G20   30.14R
$$

NCZ012>017-030>032-051300-
NORTH CENTRAL AND EASTERN NORTH CAROLINA

CITY           SKY/WX    TMP DP  RH WIND       PRES   REMARKS
ROANOKE RAPIDS CLOUDY    70  70 100 N6        30.13R FOG
RALEIGH        FOG       70  70 100 NE7       30.15R VSB 1/8
ELIZABETH CITY PTSUNNY   76  73  91 N9        30.08S
AHOSKIE*       CLOUDY    71  70  97 N5        30.12R FOG
EDENTON*       MOSUNNY   71  69  95 N7        30.09R FOG
CURRITUCK*     CLOUDY    78  71  79 NE10      30.09R HAZE
KILL DEVIL HLS MOSUNNY   80  73  81 NE7       30.05R
MANTEO         MOSUNNY   79  73  82 NE9       30.06S
CAPE HATTERAS  PTSUNNY   79  72  79 NE7       30.04R
TARBORO*       CLOUDY    71  70  96 N6        30.12S FOG
GOLDSBORO      PTSUNNY   72  72 100 N8        30.08R
WASHINGTON     SUNNY     71  70  96 N6        30.09R FOG
GREENVILLE     CLOUDY    70  70 100 N5        30.11S FOG
NEW BERN       MOSUNNY   75  71  87 N10       30.08R
WILMINGTON     PTSUNNY   73  71  93 N10       30.05R FOG
$$

VAZ048-051300-
ELSEWHERE

CITY           SKY/WX    TMP DP  RH WIND       PRES   REMARKS
HARRISBURG PA  CLOUDY    71  63  75 E12       30.25R
BALTIMORE      CLOUDY    73  66  78 E9        30.22R
ANNAPOLIS      PTSUNNY   74  69  85 NE12      30.21S
ANDREWS AFB    CLOUDY    72  68  87 NE7       30.21R
PHILADELPHIA   PTSUNNY   73  62  68 NE9       30.24R
HENDERSON NC   FOG       70  68  93 N5        30.16S VSB 1
GREENSBORO     CLOUDY    70  68  93 NE7       30.18R FOG
ROCKY MOUNT    CLOUDY    73  71  93 N10       30.12R FOG
$$

VAZ100-051300-
MARINE

STATION/POSITION TIME  TEMP    WIND        PRES    WAVE   SWELL
                       AIR SEA DIR/SP/G            HT/PER HT/PER
                 (UTC) (F)     (DEG/KT/KT) (MB)    (FT/S) (FT/S)
BRANDYWINE LGT   1100   73 76   70/ 16/ 19 1022.7R
CAPE MAY NJ      1100   73 80   50/  4/  5 1022.1R
LEWES DE         1100   74 77   70/ 16/ 19 1022.2R
15NM E FENWICK I 1150   76 79   40/ 19/ 21 1021.3R   7/ 8   5/ 8
OCEAN-CITY-INLET 1100   76 78   80/ 10/ 15 1020.6R
THOMAS POINT MD  1100   73 80   70/ 13/ 14 1023.3
GOOSES REEF MD   1200   76 80   70/ 16/ 17 1023.4R
COVE POINT MD    1100   73      80/ 14/ 21 1022.8R
SOLOMONS ISLAND  1100      81                N/A
BISHOPS HEAD MD  1100   75 79   40/ 13/ 18 1020.7R
PINEY POINT MD   1105           60/ 10/ 14   N/A
POTOMAC MD       1200   76 80   50/ 17/ 21 1020.9R   2/ 3
CAMBRIDGE MD     1100   74 82   50/  9/ 14 1021.4R
LEWISETTA VA     1100   76 81   70/ 13/ 17 1021.0R
RAPPAHANNOCK LGT 1100           40/ 15/ 17 1020.6R
STINGRAY PT      1100   78 80   50/ 17/ 21 1020.5R   3/ 3
YORK RVR RNG VA  1100   78      50/ 20/ 26 1019.4R
YORKTOWN VA      1100   77 81   20/ 16/ 22 1019.5R
JAMESTOWN VA     1200   75 83   20/  4/  8   N/A
DOMINION TERM VA 1100   76      60/ 10/ 15 1019.4R
KIPTOPEKE VA     1100      81   70/ 10/ 15   N/A
CHES BAY BRIDGE  1100   79 79   30/ 22/ 26 1018.4R
CAPE HENRY VA    1100   78      60/ 24/ 26   N/A
CHESAPEAKE LGHT  1100   79      70/ 25/ 28 1019.1R
WILLOUBY STN VA  1100   77      50/ 17/ 20 1020.2R
CAPE HENRY BUOY  1128      80                N/A     6/ 6
1ST LANDING BUOY 1200      78              1019.2R   4/ 4
CAPE CHARLES BUO 1126      80                N/A     6/ 6   2/10
OFFSHORE WE BUOY 1111      79                N/A     7/ 6   2/ 9
64NM E OF VA BCH 1150   79 80   50/ 21/ 25 1017.5R   6/ 6   2/ 9
DUCK PIER NC     1100   79 80   40/ 16/ 19 1017.1R
44100 DUCK FRF   1124      79                N/A     4/ 5
44056 DUCK FRF   1111      80                N/A     4/ 5
OREGON INLET NC  1100   78 80   30/ 13/ 17 1017.2R
HATTERAS NC      1100   79 83   30/ 11/ 16 1016.6R
DIAMOND SHLS NC  1150   80 84   40/ 12/ 14 1016.9R   3/ 5   2/ 7
CAPE LOOKOUT NC  1200   80      20/ 16/ 21 1016.8R
$$



USA.gov is the U.S. government's official web portal to all federal, state and local government web resources and services.